• In Netherlands
  • List of Countries
  • For 7 days
  • Water Temperature
  • Satellite Maps
  • Weather Map
  • Weather Widgets
  • user-avatar
    Login

    Hourly Weather Hasselt

    Today, 22 February, Wednesday

    Time Temperature Precipitation Wind Pressure Humidity
    00:00 +8°C° 0.2 mm 9 mps 755 mmHg 90%
    01:00 +8°C° 0.1 mm 9 mps 755 mmHg 90%
    02:00 +8°C° 0.1 mm 9 mps 754 mmHg 89%
    03:00 +8°C° 0.1 mm 9 mps 754 mmHg 89%
    04:00 +8°C° 0.3 mm 9 mps 754 mmHg 89%
    05:00 +8°C° 0.3 mm 9 mps 753 mmHg 89%
    06:00 +8°C° 0.3 mm 9 mps 753 mmHg 90%
    07:00 +8°C° 0.5 mm 9 mps 753 mmHg 90%
    08:00 +8°C° 0.5 mm 9 mps 753 mmHg 90%
    09:00 +8°C° 0.5 mm 9 mps 753 mmHg 90%
    10:00 +8°C° 0.2 mm 9 mps 753 mmHg 90%
    11:00 +10°C° 0.2 mm 9 mps 753 mmHg 89%
    12:00 +10°C° 0.2 mm 9 mps 753 mmHg 89%
    13:00 +9°C° 0.2 mm 10 mps 752 mmHg 89%
    14:00 +9°C° 0.2 mm 10 mps 752 mmHg 89%
    15:00 +9°C° 0.2 mm 10 mps 752 mmHg 89%
    16:00 +9°C° 0.5 mm 10 mps 752 mmHg 89%
    17:00 +9°C° 0.5 mm 10 mps 752 mmHg 89%
    18:00 +9°C° 0.5 mm 10 mps 752 mmHg 89%
    19:00 +9°C° 0.4 mm 10 mps 752 mmHg 90%
    20:00 +10°C° 0.4 mm 9 mps 752 mmHg 90%
    21:00 +10°C° 0.4 mm 9 mps 752 mmHg 90%
    22:00 +8°C° 0.3 mm 9 mps 752 mmHg 91%
    23:00 +8°C° 0.3 mm 9 mps 752 mmHg 91%

    Tomorrow, 23 February, Thursday

    Time Temperature Precipitation Wind Pressure Humidity
    00:00 +8°C° 0.3 mm 9 mps 752 mmHg 91%
    01:00 +8°C° 0.3 mm 9 mps 751 mmHg 91%
    02:00 +8°C° 0.3 mm 9 mps 750 mmHg 90%
    03:00 +8°C° 0.3 mm 9 mps 750 mmHg 90%
    04:00 +8°C° 0.2 mm 9 mps 749 mmHg 90%
    05:00 +8°C° 0.2 mm 9 mps 749 mmHg 89%
    06:00 +7°C° 0.2 mm 9 mps 748 mmHg 89%
    07:00 +7°C° 0.4 mm 10 mps 747 mmHg 88%
    08:00 +7°C° 0.4 mm 10 mps 747 mmHg 88%
    09:00 +7°C° 0.4 mm 10 mps 746 mmHg 87%
    10:00 +7°C° 0.2 mm 11 mps 745 mmHg 86%
    11:00 +7°C° 0.2 mm 12 mps 745 mmHg 84%
    12:00 +8°C° 0.2 mm 13 mps 744 mmHg 82%
    13:00 +8°C° 0.6 mm 13 mps 743 mmHg 79%
    14:00 +8°C° 0.6 mm 13 mps 743 mmHg 76%
    15:00 +8°C° 0.6 mm 13 mps 742 mmHg 73%
    16:00 +7°C° 0 mm 12 mps 743 mmHg 74%
    17:00 +5°C° 0 mm 12 mps 744 mmHg 75%
    18:00 +4°C° 0 mm 11 mps 744 mmHg 76%
    19:00 +4°C° 0.1 mm 11 mps 745 mmHg 76%
    20:00 +5°C° 0.1 mm 10 mps 746 mmHg 76%
    21:00 +3°C° 0.1 mm 9 mps 748 mmHg 77%
    22:00 +4°C° 0.1 mm 8 mps 748 mmHg 78%
    23:00 +4°C° 0.1 mm 8 mps 749 mmHg 80%

    Day after tomorrow, 24 February, Friday

    Time Temperature Precipitation Wind Pressure Humidity
    00:00 +3°C° 0.1 mm 7 mps 750 mmHg 81%
    01:00 +3°C° 0.1 mm 6 mps 751 mmHg 83%
    02:00 +3°C° 0.1 mm 6 mps 751 mmHg 85%
    03:00 +2°C° 0.1 mm 5 mps 752 mmHg 87%
    04:00 +2°C° 0.1 mm 5 mps 752 mmHg 87%
    05:00 +2°C° 0.1 mm 5 mps 753 mmHg 87%
    06:00 +2°C° 0.1 mm 5 mps 753 mmHg 88%
    07:00 +2°C° 0.1 mm 6 mps 754 mmHg 83%
    08:00 +3°C° 0.1 mm 6 mps 754 mmHg 79%
    09:00 +3°C° 0.1 mm 7 mps 755 mmHg 75%
    10:00 +4°C° 0.2 mm 7 mps 755 mmHg 73%
    11:00 +4°C° 0.2 mm 7 mps 755 mmHg 71%
    12:00 +4°C° 0.2 mm 7 mps 756 mmHg 70%
    13:00 +4°C° 0.3 mm 7 mps 756 mmHg 69%
    14:00 +4°C° 0.3 mm 7 mps 756 mmHg 69%
    15:00 +4°C° 0.3 mm 6 mps 756 mmHg 69%
    16:00 +3°C° 0.1 mm 5 mps 757 mmHg 73%
    17:00 +3°C° 0.1 mm 4 mps 758 mmHg 78%
    18:00 +2°C° 0.1 mm 3 mps 758 mmHg 82%
    19:00 +2°C° 0 mm 3 mps 759 mmHg 84%
    20:00 +1°C° 0 mm 3 mps 760 mmHg 86%
    21:00 +1°C° 0 mm 3 mps 760 mmHg 88%
    22:00 +1°C° 0 mm 3 mps 760 mmHg 89%
    23:00 +1°C° 0 mm 3 mps 760 mmHg 90%

    25 February, Saturday

    Time Temperature Precipitation Wind Pressure Humidity
    00:00 0°C° 0 mm 4 mps 761 mmHg 91%
    01:00 0°C° 0 mm 4 mps 760 mmHg 91%
    02:00 0°C° 0 mm 4 mps 760 mmHg 91%
    03:00 0°C° 0 mm 5 mps 760 mmHg 92%
    04:00 +1°C° 0 mm 5 mps 760 mmHg 92%
    05:00 +1°C° 0 mm 6 mps 760 mmHg 92%
    06:00 +1°C° 0 mm 6 mps 759 mmHg 92%
    07:00 +2°C° 0.2 mm 7 mps 759 mmHg 91%
    08:00 +3°C° 0.2 mm 7 mps 759 mmHg 89%
    09:00 +2°C° 0.2 mm 8 mps 759 mmHg 88%
    10:00 +4°C° 0.1 mm 8 mps 759 mmHg 85%
    11:00 +5°C° 0.1 mm 8 mps 759 mmHg 83%
    12:00 +6°C° 0.1 mm 8 mps 759 mmHg 80%
    13:00 +7°C° 0 mm 8 mps 758 mmHg 79%
    14:00 +7°C° 0 mm 8 mps 758 mmHg 77%
    15:00 +9°C° 0 mm 8 mps 757 mmHg 76%
    16:00 +7°C° 0 mm 8 mps 757 mmHg 78%
    17:00 +6°C° 0 mm 8 mps 757 mmHg 81%
    18:00 +6°C° 0 mm 7 mps 757 mmHg 84%
    19:00 +6°C° 0 mm 8 mps 756 mmHg 83%
    20:00 +6°C° 0 mm 8 mps 756 mmHg 82%
    21:00 +6°C° 0 mm 9 mps 756 mmHg 82%
    22:00 +6°C° 0 mm 9 mps 756 mmHg 83%
    23:00 +6°C° 0 mm 9 mps 756 mmHg 84%

    26 February, Sunday

    Time Temperature Precipitation Wind Pressure Humidity
    00:00 +6°C° 0 mm 9 mps 756 mmHg 85%
    01:00 +6°C° 0 mm 8 mps 756 mmHg 86%
    02:00 +6°C° 0 mm 8 mps 756 mmHg 87%
    03:00 +7°C° 0 mm 8 mps 756 mmHg 88%
    04:00 +8°C° 0.1 mm 7 mps 757 mmHg 90%
    05:00 +8°C° 0.1 mm 6 mps 757 mmHg 91%
    06:00 +8°C° 0.1 mm 6 mps 758 mmHg 92%
    07:00 +8°C° 0 mm 6 mps 758 mmHg 91%
    08:00 +8°C° 0 mm 5 mps 759 mmHg 90%
    09:00 +8°C° 0 mm 5 mps 759 mmHg 88%
    10:00 +8°C° 0 mm 6 mps 759 mmHg 85%
    11:00 +9°C° 0 mm 6 mps 759 mmHg 82%
    12:00 +9°C° 0 mm 6 mps 759 mmHg 79%
    13:00 +9°C° 0 mm 6 mps 759 mmHg 79%
    14:00 +9°C° 0 mm 6 mps 758 mmHg 80%
    15:00 +9°C° 0 mm 5 mps 758 mmHg 80%
    16:00 +9°C° 0 mm 5 mps 758 mmHg 82%
    17:00 +8°C° 0 mm 5 mps 758 mmHg 84%
    18:00 +8°C° 0 mm 5 mps 758 mmHg 86%
    19:00 +8°C° 0 mm 5 mps 757 mmHg 87%
    20:00 +8°C° 0 mm 5 mps 757 mmHg 87%
    21:00 +8°C° 0 mm 6 mps 757 mmHg 88%
    22:00 +8°C° 0 mm 5 mps 757 mmHg 88%
    23:00 +8°C° 0 mm 5 mps 756 mmHg 89%

    27 February, Monday

    Time Temperature Precipitation Wind Pressure Humidity
    00:00 +8°C° 0 mm 5 mps 756 mmHg 89%
    01:00 +8°C° 0 mm 5 mps 756 mmHg 89%
    02:00 +8°C° 0 mm 5 mps 755 mmHg 89%
    03:00 +8°C° 0 mm 5 mps 755 mmHg 89%
    04:00 +8°C° 0 mm 6 mps 754 mmHg 88%
    05:00 +8°C° 0 mm 6 mps 754 mmHg 87%
    06:00 +8°C° 0 mm 6 mps 754 mmHg 86%
    07:00 +8°C° 0 mm 7 mps 753 mmHg 85%
    08:00 +9°C° 0 mm 8 mps 753 mmHg 84%
    09:00 +9°C° 0 mm 8 mps 753 mmHg 83%
    10:00 +10°C° 0.1 mm 8 mps 752 mmHg 81%
    11:00 +11°C° 0.1 mm 8 mps 751 mmHg 80%
    12:00 +11°C° 0.1 mm 8 mps 751 mmHg 78%
    13:00 +12°C° 0.1 mm 8 mps 750 mmHg 77%
    14:00 +12°C° 0.1 mm 7 mps 749 mmHg 75%
    15:00 +12°C° 0.1 mm 7 mps 748 mmHg 74%
    16:00 +12°C° 0 mm 7 mps 748 mmHg 75%
    17:00 +11°C° 0 mm 7 mps 748 mmHg 76%
    18:00 +11°C° 0 mm 7 mps 747 mmHg 77%
    19:00 +10°C° 0.6 mm 7 mps 748 mmHg 81%
    20:00 +10°C° 0.6 mm 7 mps 748 mmHg 84%
    21:00 +10°C° 0.6 mm 7 mps 748 mmHg 88%
    22:00 +9°C° 0.1 mm 6 mps 748 mmHg 89%
    23:00 +9°C° 0.1 mm 5 mps 749 mmHg 90%
    Show more